Hill City, KS

3:06 PM CDT on August 28, 2016 (GMT -0500)
Hill City Municipal

Weather History for KHLC - April, 2013

Change the Weather History Date:

Saturday, April 6, 2013

  Actual Average Record
Temperature  
Mean Temperature 61 °F 48 °F  
Max Temperature 76 °F 62 °F 90 °F (1954)
Min Temperature 46 °F 34 °F 10 °F (1936)
Degree Days  
Heating Degree Days 4    
Growing Degree Days 10 (Base 50)    
Moisture  
Dew Point 31 °F    
Average Humidity 33    
Maximum Humidity 50    
Minimum Humidity 19    
Precipitation  
Precipitation 0.00 in 0.05 in 0.91 in (1998)
Month to date precipitation 0.00 0.31  
Year to date precipitation 1.98 2.91  
Sea Level Pressure  
Sea Level Pressure 29.74 in    
Wind  
Wind Speed 11 mph (WNW)    
Max Wind Speed 24 mph    
Max Gust Speed 33 mph    
Visibility 10 miles    
Events      
T = Trace of Precipitation, MM = Missing Value Source: NWS Daily Summary

Daily Weather History Graph

Daily Weather History Graph

Search for Another Location

Airport or City:

Trip Planner

Search our weather history database for the weather conditions in past years. The results will help you decide how hot, cold, wet, or windy it might be!

Date:

Astronomy

Apr. 06, 2013 Rise Set
Actual Time 7:15 AM CDT 8:08 PM CDT
Civil Twilight 6:48 AM CDT 8:35 PM CDT
Nautical Twilight 6:15 AM CDT 9:08 PM CDT
Astronomical Twilight 5:42 AM CDT 9:41 PM CDT
Moon 4:58 AM CDT (4/6) 4:39 PM CDT (4/6)
Length of Visible Light 13h 47m
Length of Day
12h 53m
Waning Crescent, 15% of the Moon is Illuminated
Apr 6
Waning Crescent
Apr 10
New
Apr 18
First Quarter
Apr 25
Full
May 2
Last Quarter

Hourly Weather History & Observations

Time (CDT) Temp. Dew Point Humidity Pressure Visibility Wind Dir Wind Speed Gust Speed Precip Events Conditions
12:53 AM 59.0 °F - N/A% 29.60 in 10.0 mi South 10.4 mph 20.7 mph N/A   Clear
1:53 AM 55.9 °F - N/A% 29.57 in 10.0 mi South 9.2 mph - N/A   Clear
2:53 AM 55.0 °F - N/A% 29.61 in 10.0 mi NNW 9.2 mph - N/A   Clear
3:53 AM 48.9 °F - N/A% 29.61 in 10.0 mi Calm Calm - N/A   Clear
4:53 AM 48.0 °F - N/A% 29.61 in 10.0 mi WSW 5.8 mph - N/A   Clear
5:53 AM 51.1 °F - N/A% 29.65 in 10.0 mi West 6.9 mph - N/A   Clear
7:53 AM 53.1 °F - N/A% 29.73 in 10.0 mi NW 12.7 mph 20.7 mph N/A   Clear
8:53 AM 55.9 °F - N/A% 29.77 in 10.0 mi NNW 24.2 mph 33.4 mph N/A   Clear
9:53 AM 60.1 °F - N/A% 29.79 in 10.0 mi NW 19.6 mph 33.4 mph N/A   Clear
10:53 AM 64.9 °F - N/A% 29.78 in 10.0 mi NNW 24.2 mph 29.9 mph N/A   Clear
11:53 AM 69.1 °F - N/A% 29.78 in 10.0 mi NNW 23.0 mph 32.2 mph N/A   Clear
12:53 PM 70.0 °F - N/A% 29.77 in 10.0 mi NNW 21.9 mph 33.4 mph N/A   Clear
1:53 PM 72.0 °F - N/A% 29.78 in 10.0 mi North 24.2 mph 29.9 mph N/A   Clear
2:53 PM 73.9 °F - N/A% 29.77 in 10.0 mi NNW 11.5 mph 26.5 mph N/A   Clear
3:53 PM 73.0 °F 32.0 °F 22% 29.78 in 10.0 mi NW 9.2 mph 17.3 mph N/A   Clear
4:53 PM 73.9 °F 30.0 °F 20% 29.77 in 10.0 mi NW 16.1 mph 24.2 mph N/A   Clear
5:53 PM 73.0 °F 30.0 °F 20% 29.78 in 10.0 mi NW 12.7 mph 19.6 mph N/A   Clear
6:53 PM 73.0 °F 28.0 °F 19% 29.77 in 10.0 mi NW 6.9 mph - N/A   Clear
7:53 PM 66.0 °F 30.9 °F 27% 29.78 in 10.0 mi Calm Calm - N/A   Clear
8:53 PM 57.0 °F 32.0 °F 39% 29.79 in 10.0 mi Calm Calm - N/A   Clear
9:53 PM 52.0 °F 33.1 °F 49% 29.81 in 10.0 mi WSW 3.5 mph - N/A   Clear
10:53 PM 51.1 °F 33.1 °F 50% 29.83 in 10.0 mi WSW 4.6 mph - N/A   Clear
11:53 PM 52.0 °F 33.1 °F 49% 29.82 in 10.0 mi WSW 4.6 mph - N/A   Clear